Time,TemperatureF,DewpointF,PressureIn,WindDirection,WindDirectionDegrees,WindSpeedMPH,WindSpeedGustMPH,Humidity,HourlyPrecipIn,Conditions,Clouds,dailyrainin,SoftwareType,DateUTC
2013-03-22 00:06:00,24.0,14.0,29.65,West,269,1.0,8.0,67,0.00,,,0.00,weatherlink.com 1.10,2013-03-22 04:06:00,
2013-03-22 00:36:00,23.7,16.0,29.66,West,276,0.0,6.0,71,0.00,,,0.00,weatherlink.com 1.10,2013-03-22 04:36:00,
2013-03-22 00:51:00,23.6,16.0,29.66,WNW,284,3.0,7.0,72,0.00,,,0.00,weatherlink.com 1.10,2013-03-22 04:51:00,
2013-03-22 01:06:00,23.3,16.0,29.66,WNW,298,3.0,5.0,74,0.00,,,0.00,weatherlink.com 1.10,2013-03-22 05:06:00,
2013-03-22 01:21:00,23.0,16.0,29.66,WNW,283,2.0,9.0,75,0.00,,,0.00,weatherlink.com 1.10,2013-03-22 05:21:00,
2013-03-22 01:36:00,22.7,16.0,29.66,WNW,285,3.0,5.0,76,0.00,,,0.00,weatherlink.com 1.10,2013-03-22 05:36:00,
2013-03-22 01:51:00,22.3,16.0,29.66,WNW,284,1.0,6.0,78,0.00,,,0.00,weatherlink.com 1.10,2013-03-22 05:51:00,
2013-03-22 02:06:00,22.1,17.0,29.66,WNW,283,1.0,7.0,79,0.00,,,0.00,weatherlink.com 1.10,2013-03-22 06:06:00,
2013-03-22 02:21:00,21.7,16.0,29.66,NW,307,1.0,7.0,80,0.00,,,0.00,weatherlink.com 1.10,2013-03-22 06:21:00,
2013-03-22 02:36:00,21.2,16.0,29.66,West,277,2.0,5.0,80,0.00,,,0.00,weatherlink.com 1.10,2013-03-22 06:36:00,
2013-03-22 02:51:00,20.7,16.0,29.66,WNW,300,2.0,5.0,82,0.00,,,0.00,weatherlink.com 1.10,2013-03-22 06:51:00,
2013-03-22 03:21:00,19.8,16.0,29.65,WNW,290,3.0,5.0,84,0.00,,,0.00,weatherlink.com 1.10,2013-03-22 07:21:00,
2013-03-22 03:37:00,19.5,16.0,29.65,NNE,16,0.0,4.0,85,0.00,,,0.00,weatherlink.com 1.10,2013-03-22 07:37:00,
2013-03-22 03:52:00,19.0,15.0,29.65,WNW,298,0.0,3.0,85,0.00,,,0.00,weatherlink.com 1.10,2013-03-22 07:52:00,
2013-03-22 04:07:00,19.3,16.0,29.65,West,281,2.0,5.0,86,0.00,,,0.00,weatherlink.com 1.10,2013-03-22 08:07:00,
2013-03-22 04:22:00,19.3,16.0,29.65,WNW,287,2.0,6.0,85,0.00,,,0.00,weatherlink.com 1.10,2013-03-22 08:22:00,
2013-03-22 04:37:00,19.0,16.0,29.65,NW,304,1.0,8.0,86,0.00,,,0.00,weatherlink.com 1.10,2013-03-22 08:37:00,
2013-03-22 04:52:00,18.5,15.0,29.65,West,271,0.0,4.0,87,0.00,,,0.00,weatherlink.com 1.10,2013-03-22 08:52:00,
2013-03-22 05:07:00,18.1,15.0,29.65,NW,312,1.0,6.0,87,0.00,,,0.00,weatherlink.com 1.10,2013-03-22 09:07:00,
2013-03-22 05:22:00,17.6,15.0,29.65,WNW,289,0.0,4.0,88,0.00,,,0.00,weatherlink.com 1.10,2013-03-22 09:22:00,
2013-03-22 05:37:00,17.2,15.0,29.65,North,349,1.0,3.0,89,0.00,,,0.00,weatherlink.com 1.10,2013-03-22 09:37:00,
2013-03-22 05:52:00,17.1,14.0,29.66,NW,305,1.0,5.0,89,0.00,,,0.00,weatherlink.com 1.10,2013-03-22 09:52:00,
2013-03-22 06:07:00,16.8,14.0,29.66,North,11,0.0,6.0,90,0.00,,,0.00,weatherlink.com 1.10,2013-03-22 10:07:00,
2013-03-22 06:22:00,16.9,15.0,29.66,North,1,0.0,4.0,90,0.00,,,0.00,weatherlink.com 1.10,2013-03-22 10:22:00,
2013-03-22 06:37:00,16.9,15.0,29.66,West,269,1.0,3.0,90,0.00,,,0.00,weatherlink.com 1.10,2013-03-22 10:37:00,
2013-03-22 06:52:00,16.7,14.0,29.66,NNW,335,1.0,5.0,90,0.00,,,0.00,weatherlink.com 1.10,2013-03-22 10:52:00,
2013-03-22 07:07:00,17.1,15.0,29.67,North,358,2.0,6.0,90,0.00,,,0.00,weatherlink.com 1.10,2013-03-22 11:07:00,
2013-03-22 07:22:00,17.0,15.0,29.67,NE,53,0.0,4.0,90,0.00,,,0.00,weatherlink.com 1.10,2013-03-22 11:22:00,
2013-03-22 07:37:00,17.0,14.0,29.68,West,271,0.0,4.0,89,0.00,,,0.00,weatherlink.com 1.10,2013-03-22 11:37:00,
2013-03-22 07:52:00,17.3,14.0,29.69,WNW,302,1.0,5.0,87,0.00,,,0.00,weatherlink.com 1.10,2013-03-22 11:52:00,
2013-03-22 08:07:00,17.8,14.0,29.69,North,354,0.0,3.0,84,0.00,,,0.00,weatherlink.com 1.10,2013-03-22 12:07:00,
2013-03-22 08:22:00,18.5,14.0,29.69,WNW,293,0.0,2.0,82,0.00,,,0.00,weatherlink.com 1.10,2013-03-22 12:22:00,
2013-03-22 08:37:00,19.4,14.0,29.69,West,276,1.0,3.0,79,0.00,,,0.00,weatherlink.com 1.10,2013-03-22 12:37:00,
2013-03-22 08:52:00,20.5,14.0,29.69,West,278,2.0,4.0,77,0.00,,,0.00,weatherlink.com 1.10,2013-03-22 12:52:00,
2013-03-22 09:07:00,21.6,15.0,29.69,West,264,2.0,5.0,74,0.00,,,0.00,weatherlink.com 1.10,2013-03-22 13:07:00,
2013-03-22 09:22:00,22.5,15.0,29.69,West,274,1.0,6.0,73,0.00,,,0.00,weatherlink.com 1.10,2013-03-22 13:22:00,
2013-03-22 09:37:00,23.4,15.0,29.69,SSW,196,2.0,5.0,70,0.00,,,0.00,weatherlink.com 1.10,2013-03-22 13:37:00,
2013-03-22 09:52:00,24.2,15.0,29.70,NW,312,2.0,6.0,68,0.00,,,0.00,weatherlink.com 1.10,2013-03-22 13:52:00,
2013-03-22 10:07:00,24.6,15.0,29.70,WNW,287,3.0,5.0,67,0.00,,,0.00,weatherlink.com 1.10,2013-03-22 14:07:00,
2013-03-22 10:22:00,25.1,15.0,29.70,WNW,286,1.0,5.0,66,0.00,,,0.00,weatherlink.com 1.10,2013-03-22 14:22:00,
2013-03-22 10:37:00,25.8,15.0,29.69,WNW,302,2.0,5.0,64,0.00,,,0.00,weatherlink.com 1.10,2013-03-22 14:37:00,
2013-03-22 10:52:00,27.0,15.0,29.69,SW,229,1.0,6.0,62,0.00,,,0.00,weatherlink.com 1.10,2013-03-22 14:52:00,
2013-03-22 11:08:00,27.7,16.0,29.69,North,358,0.0,4.0,61,0.00,,,0.00,weatherlink.com 1.10,2013-03-22 15:08:00,
2013-03-22 11:23:00,28.2,16.0,29.69,West,259,1.0,6.0,60,0.00,,,0.00,weatherlink.com 1.10,2013-03-22 15:23:00,
2013-03-22 11:38:00,28.1,15.0,29.68,WSW,249,3.0,8.0,59,0.00,,,0.00,weatherlink.com 1.10,2013-03-22 15:38:00,
2013-03-22 11:53:00,30.2,16.0,29.68,WNW,289,2.0,6.0,57,0.00,,,0.00,weatherlink.com 1.10,2013-03-22 15:53:00,
2013-03-22 12:08:00,28.9,15.0,29.68,West,271,2.0,8.0,57,0.00,,,0.00,weatherlink.com 1.10,2013-03-22 16:08:00,
2013-03-22 12:23:00,30.2,16.0,29.68,WNW,291,1.0,6.0,56,0.01,,,0.01,weatherlink.com 1.10,2013-03-22 16:23:00,
2013-03-22 12:38:00,30.5,17.0,29.68,West,276,2.0,9.0,58,0.01,,,0.01,weatherlink.com 1.10,2013-03-22 16:38:00,
2013-03-22 12:53:00,32.9,18.0,29.67,West,281,1.0,8.0,54,0.03,,,0.03,weatherlink.com 1.10,2013-03-22 16:53:00,
2013-03-22 13:08:00,31.7,17.0,29.67,West,273,2.0,6.0,55,0.04,,,0.04,weatherlink.com 1.10,2013-03-22 17:08:00,
2013-03-22 13:23:00,31.6,18.0,29.67,WSW,238,3.0,7.0,58,0.04,,,0.05,weatherlink.com 1.10,2013-03-22 17:23:00,
2013-03-22 13:38:00,31.0,17.0,29.67,SE,136,2.0,6.0,57,0.04,,,0.05,weatherlink.com 1.10,2013-03-22 17:38:00,
2013-03-22 13:53:00,32.1,17.0,29.66,West,265,4.0,6.0,55,0.02,,,0.05,weatherlink.com 1.10,2013-03-22 17:53:00,
2013-03-22 14:08:00,32.6,18.0,29.66,WNW,291,3.0,7.0,55,0.01,,,0.05,weatherlink.com 1.10,2013-03-22 18:08:00,
2013-03-22 14:23:00,31.7,17.0,29.66,WNW,295,4.0,10.0,56,0.00,,,0.05,weatherlink.com 1.10,2013-03-22 18:23:00,
2013-03-22 14:38:00,30.7,18.0,29.66,SW,217,1.0,9.0,60,0.00,,,0.05,weatherlink.com 1.10,2013-03-22 18:38:00,
2013-03-22 14:53:00,30.4,17.0,29.65,WSW,255,4.0,10.0,58,0.00,,,0.05,weatherlink.com 1.10,2013-03-22 18:53:00,
2013-03-22 15:08:00,30.8,15.0,29.65,West,278,4.0,13.0,53,0.00,,,0.05,weatherlink.com 1.10,2013-03-22 19:08:00,
2013-03-22 15:23:00,32.4,17.0,29.65,West,276,3.0,7.0,54,0.00,,,0.05,weatherlink.com 1.10,2013-03-22 19:23:00,
2013-03-22 15:38:00,31.9,15.0,29.65,WSW,242,2.0,9.0,51,0.00,,,0.05,weatherlink.com 1.10,2013-03-22 19:38:00,
2013-03-22 15:53:00,30.6,16.0,29.65,WSW,255,9.0,10.0,55,0.00,,,0.05,weatherlink.com 1.10,2013-03-22 19:53:00,
2013-03-22 16:08:00,30.2,16.0,29.66,West,277,6.0,8.0,56,0.00,,,0.05,weatherlink.com 1.10,2013-03-22 20:08:00,
2013-03-22 16:23:00,30.1,17.0,29.66,NW,308,6.0,9.0,59,0.00,,,0.05,weatherlink.com 1.10,2013-03-22 20:23:00,
2013-03-22 16:38:00,30.7,17.0,29.66,NW,313,3.0,7.0,58,0.00,,,0.05,weatherlink.com 1.10,2013-03-22 20:38:00,
2013-03-22 16:53:00,31.1,17.0,29.66,SW,228,4.0,8.0,56,0.00,,,0.05,weatherlink.com 1.10,2013-03-22 20:53:00,
2013-03-22 17:08:00,31.2,17.0,29.66,SW,228,2.0,8.0,56,0.00,,,0.05,weatherlink.com 1.10,2013-03-22 21:08:00,
2013-03-22 17:23:00,31.1,19.0,29.66,West,269,1.0,8.0,61,0.00,,,0.05,weatherlink.com 1.10,2013-03-22 21:23:00,
2013-03-22 17:38:00,30.9,20.0,29.67,West,273,2.0,6.0,64,0.00,,,0.05,weatherlink.com 1.10,2013-03-22 21:38:00,
2013-03-22 17:53:00,30.4,20.0,29.67,West,262,2.0,10.0,66,0.00,,,0.05,weatherlink.com 1.10,2013-03-22 21:53:00,
2013-03-22 18:09:00,29.7,20.0,29.68,WSW,248,3.0,13.0,67,0.00,,,0.05,weatherlink.com 1.10,2013-03-22 22:09:00,
2013-03-22 18:23:00,28.8,20.0,29.68,West,280,2.0,8.0,70,0.00,,,0.05,weatherlink.com 1.10,2013-03-22 22:23:00,
2013-03-22 18:38:00,28.2,21.0,29.69,SSW,194,2.0,10.0,73,0.00,,,0.05,weatherlink.com 1.10,2013-03-22 22:38:00,
2013-03-22 18:53:00,27.2,23.0,29.70,West,276,2.0,9.0,83,0.00,,,0.05,weatherlink.com 1.10,2013-03-22 22:53:00,
2013-03-22 19:08:00,27.2,22.0,29.70,WSW,243,1.0,7.0,82,0.00,,,0.05,weatherlink.com 1.10,2013-03-22 23:08:00,
2013-03-22 19:23:00,27.1,23.0,29.71,South,188,1.0,5.0,83,0.00,,,0.05,weatherlink.com 1.10,2013-03-22 23:23:00,
2013-03-22 19:38:00,27.3,22.0,29.71,SW,219,1.0,7.0,80,0.00,,,0.05,weatherlink.com 1.10,2013-03-22 23:38:00,
2013-03-22 19:53:00,27.2,22.0,29.71,WNW,302,4.0,11.0,80,0.00,,,0.05,weatherlink.com 1.10,2013-03-22 23:53:00,
2013-03-22 20:08:00,26.8,22.0,29.72,West,274,2.0,8.0,83,0.00,,,0.05,weatherlink.com 1.10,2013-03-23 00:08:00,
2013-03-22 20:23:00,26.6,22.0,29.73,WSW,242,2.0,10.0,83,0.00,,,0.05,weatherlink.com 1.10,2013-03-23 00:23:00,
2013-03-22 20:38:00,26.6,22.0,29.73,WNW,293,2.0,7.0,84,0.00,,,0.05,weatherlink.com 1.10,2013-03-23 00:38:00,
2013-03-22 20:53:00,26.7,22.0,29.73,WNW,284,2.0,5.0,83,0.00,,,0.05,weatherlink.com 1.10,2013-03-23 00:53:00,
2013-03-22 21:08:00,26.8,22.0,29.73,WSW,240,3.0,10.0,82,0.00,,,0.05,weatherlink.com 1.10,2013-03-23 01:08:00,
2013-03-22 21:23:00,26.4,22.0,29.73,West,281,5.0,9.0,84,0.00,,,0.05,weatherlink.com 1.10,2013-03-23 01:23:00,
2013-03-22 21:38:00,25.9,22.0,29.73,WNW,284,5.0,10.0,84,0.00,,,0.05,weatherlink.com 1.10,2013-03-23 01:38:00,
2013-03-22 21:54:00,25.4,21.0,29.74,WNW,298,4.0,9.0,82,0.00,,,0.05,weatherlink.com 1.10,2013-03-23 01:54:00,
2013-03-22 22:09:00,25.0,20.0,29.74,West,278,2.0,11.0,82,0.00,,,0.05,weatherlink.com 1.10,2013-03-23 02:09:00,
2013-03-22 22:24:00,24.9,21.0,29.74,West,277,3.0,7.0,84,0.00,,,0.05,weatherlink.com 1.10,2013-03-23 02:24:00,
2013-03-22 22:39:00,24.7,20.0,29.74,West,281,5.0,10.0,81,0.00,,,0.05,weatherlink.com 1.10,2013-03-23 02:39:00,
2013-03-22 22:54:00,24.5,19.0,29.73,WNW,295,6.0,7.0,81,0.00,,,0.05,weatherlink.com 1.10,2013-03-23 02:54:00,
2013-03-22 23:09:00,24.2,19.0,29.74,West,278,4.0,9.0,82,0.00,,,0.05,weatherlink.com 1.10,2013-03-23 03:09:00,
2013-03-22 23:24:00,24.0,20.0,29.74,WNW,289,2.0,10.0,84,0.00,,,0.05,weatherlink.com 1.10,2013-03-23 03:24:00,
2013-03-22 23:39:00,23.6,20.0,29.74,WNW,291,2.0,8.0,84,0.00,,,0.05,weatherlink.com 1.10,2013-03-23 03:39:00,
2013-03-22 23:54:00,23.2,19.0,29.74,West,273,2.0,13.0,82,0.00,,,0.05,weatherlink.com 1.10,2013-03-23 03:54:00,